Location: An Tulaigh
(53.1928°N, 8.1647°W)
Time: 00:34:42
(UTC+00:00)

Cosmos 1544 Rocket - Pass Details

Date: 15 May 2026
Orbit: 597 x 623 km, 82.5° (Epoch: 9 June)

Event Time Altitude Azimuth Distance (km) Brightness Sun altitude
Exits shadow 21:36:03 - 187° (S) 2,826 6.5 -8.7°
Reaches altitude 10° 21:38:10 10° 187° (S) 1,957 5.7 -8.9°
Maximum altitude 21:42:30 84° 100° (E) 616 3.5 -9.3°
Drops below altitude 10° 21:46:51 10° 12° (NNE) 1,959 6.7 -9.7°
Sets 21:49:03 0° 12° (NNE) 2,864 7.6 -9.9°
